Date_and_time,latitude,longitude,wind_speed,RelWindDirFrom,WindDirFrom,air_pressure,air_temperature,relative_humidity,Temp,platform_speed_wrt_ground,air_pressure_at_mean_sea_level,platform_orientation
2019-04-10 00:00,50.630435,-96.9807666666667,9.6,12.0,358,996.01,-2.4,62,2.14,0.0,1024.38,360.0
2019-04-10 00:00,50.630435,-96.9807666666667,8.7,8.7,1,996.04,-2.5,64,2.14,0.0,1024.42,142.0
2019-04-10 00:10,50.6304366666667,-96.9807666666667,9.6,12.2,359,995.94,-2.5,63,2.15,0.0,1024.30,142.0
2019-04-10 00:20,50.630435,-96.980765,9.7,12.0,1,995.89,-2.6,65,2.16,0.0,1024.25,142.0
2019-04-10 00:30,50.6304366666667,-96.9807666666667,9.2,11.4,1,995.89,-2.6,67,2.17,0.0,1024.24,142.0
2019-04-10 00:40,50.630435,-96.9807683333333,10.7,13.9,359,995.79,-2.7,68,2.17,0.0,1024.13,142.0
2019-04-10 00:50,50.63044,-96.9807916666667,10.5,13.1,359,995.95,-2.7,70,2.18,0.0,1024.28,142.0
2019-04-10 01:00,50.6304233333333,-96.9807716666667,10.5,13.4,357,996.14,-2.6,70,2.19,0.0,1024.49,219.5
2019-04-10 01:10,50.6304183333333,-96.9807666666667,9.5,12.2,358,996.27,-2.6,73,2.20,0.0,1024.64,219.5
2019-04-10 01:20,50.6304383333333,-96.9807916666667,10.2,12.5,4,996.33,-2.5,75,2.21,0.0,1024.70,219.5
2019-04-10 01:30,50.630415,-96.9807833333333,9.7,11.5,11,996.47,-2.6,80,2.21,0.0,1024.83,219.5
2019-04-10 01:40,50.63042,-96.9807783333333,12.8,15.4,26,996.34,-2.6,81,2.22,0.0,1024.70,219.5
2019-04-10 01:50,50.6304333333333,-96.9807883333333,11.5,13.6,31,996.49,-2.5,79,2.22,0.0,1024.86,219.5
2019-04-10 02:00,50.63043,-96.9807866666667,11.3,13.7,35,996.69,-2.5,81,2.24,0.0,1025.07,237.7
2019-04-10 02:10,50.6304283333333,-96.980785,9.8,11.8,50,996.84,-2.5,80,2.25,0.0,1025.22,237.7
2019-04-10 02:20,50.6304666666667,-96.9807683333333,11.7,14.3,63,996.98,-2.6,80,2.26,0.0,1025.37,237.7
2019-04-10 02:30,50.6304366666667,-96.980785,12.1,13.9,66,996.98,-2.6,79,2.27,0.0,1025.37,237.7
2019-04-10 02:40,50.6304366666667,-96.9807833333333,12.3,16.1,70,997.13,-2.7,79,2.28,0.0,1025.53,237.7
2019-04-10 02:50,50.6304366666667,-96.9807733333333,13.9,17.0,68,997.12,-2.7,77,2.28,0.0,1025.52,237.7
2019-04-10 03:00,50.6304416666667,-96.980775,13.9,17.2,68,997.41,-2.8,77,2.29,0.0,1025.82,311.7
2019-04-10 03:10,50.6304416666667,-96.9807733333333,10.8,13.4,65,997.89,-2.7,71,2.30,0.0,1026.31,311.7
2019-04-10 03:20,50.6304566666667,-96.98077,10.6,14.9,68,997.98,-2.6,69,2.30,0.0,1026.41,311.7
2019-04-10 03:30,50.63042,-96.9807683333333,7.9,10.4,63,998.35,-2.8,79,2.29,0.0,1026.79,311.7
2019-04-10 03:40,50.6304316666667,-96.980765,9.6,12.3,72,998.57,-2.7,72,2.28,0.0,1027.01,311.7
2019-04-10 03:50,50.630435,-96.980765,8.7,11.6,75,998.61,-2.7,75,2.27,0.0,1027.05,311.7
2019-04-10 04:00,50.630435,-96.9807666666667,6.4,8.5,80,998.64,-2.7,76,2.27,0.0,1027.08,41.3
2019-04-10 04:10,50.630435,-96.98077,6.2,7.2,71,998.53,-2.8,83,2.27,0.0,1026.98,41.3
2019-04-10 04:20,50.6304066666667,-96.980795,5.7,7.3,64,998.57,-2.8,83,2.27,0.0,1027.03,41.3
2019-04-10 04:30,50.6304266666667,-96.9807766666667,8.6,12.3,64,998.34,-2.8,80,2.28,0.0,1026.78,41.3
2019-04-10 04:40,50.6304283333333,-96.9807766666667,7.9,9.7,75,998.33,-2.7,79,2.28,0.0,1026.77,41.3
2019-04-10 04:50,50.6304333333333,-96.98078,8.7,12.0,68,998.10,-2.7,80,2.28,0.0,1026.54,41.3
2019-04-10 05:00,50.6304366666667,-96.9807733333333,9.1,11.7,76,998.01,-2.7,80,2.27,0.0,1026.44,49.4
2019-04-10 05:10,50.63043,-96.9807966666667,7.1,8.1,73,998.16,-2.7,85,2.27,0.0,1026.60,49.4
2019-04-10 05:20,50.6304383333333,-96.9807816666667,7.0,8.3,70,998.28,-2.7,86,2.23,0.0,1026.73,49.4
2019-04-10 05:30,50.6304366666667,-96.9807816666667,6.2,7.4,52,998.42,-2.8,89,2.14,0.0,1026.87,49.4
2019-04-10 05:40,50.6304366666667,-96.98078,7.0,8.6,56,998.58,-2.8,90,2.13,0.0,1027.03,49.4
2019-04-10 05:50,50.6304383333333,-96.9807766666667,8.5,10.2,55,998.42,-2.8,92,2.14,0.0,1026.88,49.4
2019-04-10 06:00,50.6304333333333,-96.98077,8.1,9.5,55,998.19,-2.9,94,2.16,0.0,1026.64,138.7
2019-04-10 06:10,50.6304333333333,-96.9807783333333,8.2,9.7,48,998.10,-2.9,96,2.17,0.0,1026.56,138.7
2019-04-10 06:20,50.6304366666667,-96.980775,8.9,10.9,49,997.99,-2.9,96,2.19,0.0,1026.44,138.7
2019-04-10 06:30,50.6304383333333,-96.9807733333333,8.0,9.6,53,997.88,-2.9,98,2.21,0.0,1026.32,138.7
2019-04-10 06:40,50.63044,-96.9807733333333,8.7,10.5,45,997.82,-3.0,97,2.22,0.0,1026.26,138.7
2019-04-10 06:50,50.63044,-96.9807733333333,8.9,10.9,49,997.69,-2.9,96,2.22,0.0,1026.12,138.7
2019-04-10 07:00,50.6304383333333,-96.9807716666667,7.5,12.2,48,997.71,-2.9,96,2.24,0.0,1026.15,347.4
2019-04-10 07:10,50.6304266666667,-96.9807566666667,7.5,10.5,48,997.81,-2.9,94,2.24,0.0,1026.25,347.4
2019-04-10 07:20,50.6304233333333,-96.980765,6.6,8.9,53,997.98,-2.8,93,2.24,0.0,1026.43,347.4
2019-04-10 07:30,50.6304283333333,-96.98077,4.9,7.4,52,998.10,-2.8,96,2.24,0.0,1026.54,347.4
2019-04-10 07:40,50.63043,-96.9807716666667,5.5,6.4,43,998.08,-2.8,97,2.22,0.0,1026.53,347.4
2019-04-10 07:50,50.6304283333333,-96.98077,5.5,7.0,34,998.27,-2.9,99,2.21,0.0,1026.73,347.4
2019-04-10 08:00,50.6304283333333,-96.9807683333333,6.6,7.9,32,998.32,-2.9,99,2.21,0.0,1026.79,165.5
2019-04-10 08:10,50.6304283333333,-96.9807683333333,7.2,8.7,33,998.39,-2.9,99,2.21,0.0,1026.85,165.5
2019-04-10 08:20,50.6304283333333,-96.9807683333333,7.2,8.5,31,998.34,-2.9,99,2.22,0.0,1026.81,165.5
2019-04-10 08:30,50.6304283333333,-96.9807683333333,7.3,8.7,33,998.11,-2.9,99,2.22,0.0,1026.57,165.5
2019-04-10 08:40,50.63043,-96.9807683333333,7.7,9.1,34,998.06,-2.9,99,2.22,0.0,1026.51,165.5
2019-04-10 08:50,50.6304316666667,-96.9807683333333,7.8,8.6,31,998.21,-2.8,99,2.23,0.0,1026.67,165.5
2019-04-10 09:00,50.6304316666667,-96.9807683333333,7.5,8.5,28,998.28,-2.8,99,2.23,0.0,1026.74,0.0
2019-04-10 09:10,50.6304466666667,-96.9807683333333,8.1,10.1,25,998.16,-2.8,99,2.23,0.0,1026.61,0.0
2019-04-10 09:20,50.63044,-96.9807683333333,9.5,11.0,25,997.80,-2.8,100,2.23,0.0,1026.25,0.0
2019-04-10 09:30,50.6304283333333,-96.9807883333333,9.6,10.9,27,997.64,-2.8,100,2.23,0.0,1026.08,0.0
2019-04-10 09:40,50.63044,-96.9807716666667,10.2,11.9,27,997.56,-2.8,100,2.23,0.0,1026.00,0.0
2019-04-10 09:50,50.6304433333333,-96.9807716666667,9.5,10.9,27,997.66,-2.8,100,2.23,0.0,1026.10,0.0
2019-04-10 10:00,50.63044,-96.9807666666667,8.7,10.3,30,997.81,-2.8,100,2.23,0.0,1026.25,90.0
2019-04-10 10:10,50.6304416666667,-96.9807666666667,9.0,10.6,30,997.87,-2.7,100,2.23,0.0,1026.31,90.0
2019-04-10 10:20,50.630435,-96.980755,9.0,10.5,31,997.89,-2.7,100,2.22,0.0,1026.33,90.0
2019-04-10 10:30,50.63044,-96.9807566666667,8.8,9.8,30,998.07,-2.7,100,2.22,0.0,1026.52,90.0
2019-04-10 10:40,50.63045,-96.98076,8.7,10.1,26,998.09,-2.7,100,2.22,0.0,1026.53,90.0
2019-04-10 10:50,50.6304466666667,-96.980765,9.2,11.2,27,998.10,-2.7,100,2.23,0.0,1026.54,90.0
2019-04-10 11:00,50.63045,-96.9807683333333,10.6,12.7,34,997.90,-2.6,100,2.22,0.0,1026.34,360.0
2019-04-10 11:10,50.6304516666667,-96.980765,11.2,13.1,35,997.92,-2.6,100,2.22,0.0,1026.35,360.0
2019-04-10 11:20,50.6304466666667,-96.980765,11.7,13.8,35,997.87,-2.6,100,2.22,0.0,1026.30,360.0
2019-04-10 11:30,50.63044,-96.9807766666667,11.8,13.8,35,997.94,-2.6,100,2.22,0.0,1026.37,360.0
2019-04-10 11:40,50.6304633333333,-96.9807716666667,11.6,13.5,35,997.99,-2.6,100,2.22,0.0,1026.43,360.0
2019-04-10 11:50,50.630455,-96.9807666666667,11.0,12.6,34,998.13,-2.6,100,2.23,0.0,1026.56,360.0
2019-04-10 12:00,50.63045,-96.9807683333333,10.4,12.1,35,998.29,-2.6,100,2.23,0.0,1026.72,360.0
2019-04-10 12:10,50.63045,-96.9807683333333,10.3,11.6,35,998.31,-2.6,100,2.23,0.0,1026.74,360.0
2019-04-10 12:20,50.6304483333333,-96.9807666666667,9.8,11.4,38,998.47,-2.5,100,2.22,0.0,1026.91,360.0
2019-04-10 12:30,50.6304483333333,-96.980765,9.7,11.4,36,998.63,-2.6,100,2.22,0.0,1027.07,360.0
2019-04-10 12:40,50.6304466666667,-96.980765,9.8,11.7,37,998.76,-2.5,100,2.21,0.0,1027.21,360.0
2019-04-10 12:50,50.6304266666667,-96.9807633333333,8.6,10.2,37,998.87,-2.5,100,2.19,0.0,1027.32,360.0
2019-04-10 13:00,50.6304416666667,-96.9807683333333,8.7,10.2,34,998.92,-2.5,100,2.16,0.0,1027.36,90.0
2019-04-10 13:10,50.63044,-96.9807683333333,8.5,10.0,33,998.96,-2.5,100,2.15,0.0,1027.40,90.0
2019-04-10 13:20,50.6304383333333,-96.9807683333333,8.1,9.6,33,999.11,-2.4,100,2.16,0.0,1027.56,90.0
2019-04-10 13:30,50.6304366666667,-96.98077,7.8,9.0,33,999.31,-2.4,100,2.16,0.0,1027.75,90.0
2019-04-10 13:40,50.6304366666667,-96.9807733333333,7.6,8.8,30,999.51,-2.3,100,2.17,0.0,1027.95,90.0
2019-04-10 13:50,50.6304366666667,-96.9807733333333,7.6,8.9,29,999.62,-2.2,100,2.17,0.0,1028.07,90.0
2019-04-10 14:00,50.6304366666667,-96.9807733333333,8.1,9.1,21,999.65,-2.1,99,2.17,0.0,1028.10,360.0
2019-04-10 14:10,50.6304383333333,-96.980775,7.9,9.1,20,999.74,-1.9,99,2.17,0.0,1028.17,360.0
2019-04-10 14:20,50.6304383333333,-96.980775,7.9,9.2,25,999.92,-1.8,99,2.17,0.0,1028.35,360.0
2019-04-10 14:30,50.6304383333333,-96.9807766666667,8.9,11.1,30,1000.00,-1.6,99,2.17,0.0,1028.43,360.0
2019-04-10 14:40,50.6304383333333,-96.980775,9.2,10.8,30,999.99,-1.5,99,2.17,0.0,1028.40,360.0
2019-04-10 14:50,50.6304383333333,-96.9807766666667,8.5,9.9,31,1000.04,-1.3,99,2.18,0.0,1028.45,360.0
2019-04-10 15:00,50.6304383333333,-96.9807766666667,9.1,10.4,31,1000.03,-1.3,99,2.18,0.0,1028.44,194.5
2019-04-10 15:10,50.6304383333333,-96.9807766666667,10.8,12.7,35,999.97,-1.3,99,2.18,0.0,1028.38,194.5
2019-04-10 15:20,50.6304383333333,-96.9807766666667,11.8,13.5,38,999.90,-1.2,97,2.19,0.0,1028.29,194.5
2019-04-10 15:30,50.6304383333333,-96.9807766666667,12.7,14.9,37,999.74,-1.0,96,2.19,0.0,1028.11,194.5
2019-04-10 15:40,50.6304383333333,-96.9807766666667,12.5,14.5,37,999.62,-0.9,95,2.20,0.0,1027.98,194.5
2019-04-10 15:50,50.6304383333333,-96.9807766666667,12.7,14.5,38,999.48,-0.7,93,2.19,0.0,1027.82,194.5
2019-04-10 16:00,50.6304383333333,-96.9807766666667,13.2,15.3,34,999.30,-0.6,92,2.18,0.0,1027.62,270.0
2019-04-10 16:10,50.6304166666667,-96.9807516666667,14.2,16.9,32,999.15,-0.5,92,2.18,0.0,1027.45,270.0
2019-04-10 16:20,50.6304233333333,-96.9807683333333,14.5,17.1,31,999.05,-0.4,91,2.18,0.0,1027.34,270.0
2019-04-10 16:30,50.630425,-96.980755,14.4,16.8,33,999.17,-0.3,89,2.18,0.0,1027.44,270.0
2019-04-10 16:40,50.63043,-96.9807716666667,13.6,16.6,32,999.36,-0.2,88,2.18,0.0,1027.62,270.0
2019-04-10 16:50,50.6304316666667,-96.9807733333333,13.0,15.2,30,999.35,-0.1,88,2.18,0.0,1027.61,270.0
2019-04-10 17:00,50.6304316666667,-96.980775,12.9,14.9,30,999.45,0.0,87,2.18,0.0,1027.71,142.0
2019-04-10 17:10,50.6304316666667,-96.980775,11.7,13.8,25,999.59,0.2,88,2.18,0.0,1027.83,142.0
2019-04-10 17:20,50.6304416666667,-96.9807733333333,12.4,13.9,23,999.50,0.2,87,2.19,0.0,1027.73,142.0
2019-04-10 17:30,50.630435,-96.98077,12.0,13.7,18,999.45,0.3,88,2.20,0.0,1027.67,142.0
2019-04-10 17:40,50.63044,-96.9807766666667,11.7,14.3,14,999.51,0.4,88,2.20,0.0,1027.72,142.0
2019-04-10 17:50,50.63044,-96.9807816666667,12.2,13.7,9,999.45,0.5,88,2.21,0.0,1027.64,142.0
2019-04-10 18:00,50.63044,-96.9807816666667,12.0,13.7,10,999.44,0.5,89,2.21,0.0,1027.63,270.0
2019-04-10 18:10,50.63044,-96.9807816666667,12.6,14.5,9,999.33,0.6,88,2.22,0.0,1027.50,270.0
2019-04-10 18:20,50.6304383333333,-96.98078,13.0,15.4,9,999.21,0.7,88,2.22,0.0,1027.38,270.0
2019-04-10 18:30,50.63044,-96.98078,13.6,15.7,8,999.07,0.7,88,2.23,0.0,1027.22,270.0
2019-04-10 18:40,50.63044,-96.98078,13.8,16.7,8,998.96,0.7,88,2.24,0.0,1027.10,270.0
2019-04-10 18:50,50.6304383333333,-96.9807766666667,13.9,16.4,8,998.78,0.8,87,2.24,0.0,1026.91,270.0
2019-04-10 19:00,50.6304383333333,-96.9807766666667,13.9,16.6,7,998.59,0.9,86,2.25,0.0,1026.70,0.0
2019-04-10 19:10,50.6304366666667,-96.9808133333333,14.5,17.1,6,998.46,0.9,84,2.25,0.0,1026.56,0.0
2019-04-10 19:20,50.6304383333333,-96.98077,14.5,17.4,6,998.34,1.1,82,2.25,0.0,1026.42,0.0
2019-04-10 19:30,50.6304366666667,-96.980775,14.4,16.5,6,998.29,1.1,82,2.26,0.0,1026.37,0.0
2019-04-10 19:40,50.6304366666667,-96.9807716666667,14.2,16.4,6,998.20,1.3,79,2.27,0.0,1026.27,0.0
2019-04-10 19:50,50.6304383333333,-96.9807733333333,15.0,17.4,6,998.09,1.4,76,2.28,0.0,1026.14,0.0
2019-04-10 20:00,50.6304383333333,-96.9807733333333,14.4,17.9,5,998.07,1.5,76,2.28,0.0,1026.12,360.0
2019-04-10 20:10,50.6304383333333,-96.980775,14.8,18.1,5,998.01,1.6,73,2.29,0.0,1026.04,360.0
2019-04-10 20:20,50.6304383333333,-96.980775,15.1,17.1,6,997.95,1.5,74,2.29,0.0,1025.99,360.0
2019-04-10 20:30,50.63044,-96.980775,14.7,17.7,6,997.91,1.7,70,2.30,0.0,1025.93,360.0
2019-04-10 20:40,50.63044,-96.9807733333333,15.0,17.5,6,997.89,1.7,70,2.30,0.0,1025.90,360.0
2019-04-10 20:50,50.63044,-96.9807716666667,15.2,18.3,6,997.76,1.9,65,2.31,0.0,1025.76,360.0
2019-04-10 21:00,50.63044,-96.9807716666667,15.0,17.1,6,997.71,1.9,67,2.32,0.0,1025.70,90.0
2019-04-10 21:10,50.6304416666667,-96.9807716666667,14.7,17.1,7,997.63,1.9,67,2.32,0.0,1025.62,90.0
2019-04-10 21:20,50.6304416666667,-96.98077,14.3,16.5,7,997.59,1.9,67,2.32,0.0,1025.57,90.0
2019-04-10 21:30,50.6304416666667,-96.98077,13.6,15.7,8,997.58,1.8,72,2.33,0.0,1025.55,90.0
2019-04-10 21:40,50.6304416666667,-96.98077,13.4,14.9,9,997.53,1.7,74,2.34,0.0,1025.51,90.0
2019-04-10 21:50,50.6304416666667,-96.98077,13.0,14.9,10,997.47,1.8,74,2.35,0.0,1025.43,90.0
2019-04-10 22:00,50.6304416666667,-96.9807683333333,12.9,14.7,10,997.39,1.7,74,2.35,0.0,1025.35,90.0
2019-04-10 22:10,50.6304416666667,-96.9807683333333,13.0,14.8,9,997.39,1.7,76,2.36,0.0,1025.35,90.0
2019-04-10 22:20,50.6304416666667,-96.9807683333333,12.7,14.3,9,997.34,1.6,76,2.37,0.0,1025.30,90.0
2019-04-10 22:30,50.6304433333333,-96.9807666666667,12.6,14.4,8,997.37,1.7,74,2.37,0.0,1025.33,90.0
2019-04-10 22:40,50.6304433333333,-96.9807683333333,12.9,14.8,7,997.40,1.7,74,2.37,0.0,1025.34,90.0
2019-04-10 22:50,50.6304433333333,-96.9807683333333,12.9,15.0,7,997.37,1.7,73,2.37,0.0,1025.32,90.0
2019-04-10 23:00,50.6304433333333,-96.9807683333333,12.8,14.9,7,997.38,1.6,73,2.38,0.0,1025.33,90.0
2019-04-10 23:10,50.6304416666667,-96.9807683333333,13.2,15.1,7,997.41,1.7,71,2.40,0.0,1025.36,90.0
2019-04-10 23:20,50.6304383333333,-96.980775,12.2,13.9,9,997.52,1.5,74,2.41,0.0,1025.49,90.0
2019-04-10 23:30,50.63044,-96.9807716666667,12.0,14.2,9,997.67,1.3,75,2.43,0.0,1025.65,90.0
